www.pogodaiklimat.ru
ПОГОДА в Йеллоустон Лейк
Время
и дата
19:56 04.07
20:56 04.07
21:56 04.07
22:56 04.07
23:56 04.07
00:56 05.07
01:56 05.07
02:56 05.07
03:56 05.07
04:56 05.07
05:56 05.07
06:56 05.07
07:56 05.07
08:56 05.07
09:56 05.07
10:56 05.07
11:56 05.07
12:56 05.07
13:56 05.07
14:56 05.07
15:56 05.07
16:56 05.07
17:56 05.07
18:56 05.07
19:56 05.07
20:56 05.07
21:56 05.07
22:56 05.07
23:56 05.07
00:56 06.07
01:56 06.07
02:56 06.07
03:56 06.07
04:56 06.07
05:56 06.07
06:56 06.07
07:56 06.07
08:56 06.07
09:56 06.07
10:56 06.07
11:56 06.07
12:56 06.07
13:56 06.07
14:56 06.07
15:56 06.07
16:56 06.07
17:56 06.07
18:56 06.07
Ветер
(напр.,м/с)
Видим. Явления Облачность Т
(С)
Тd
(С)
f
(%)
Тe
(С)
Тes
(С)
Комфортность P
(гПа)
Po
(гПа)
Тmin
(С)
Tmax
(С)
R
(мм)
R24
(мм)
S
(см)
штиль 0 н/о н/о +10.0 0.0 50 +10 +10 1025.7 770.3
СЗ 2 н/о н/о +6.1 0.0 65 +4 +4 1026.8 770.6
СЗ 3 н/о н/о +5.0 -0.6 67 +2 +2 1027.0 770.8
штиль 0 н/о н/о +2.8 -0.6 78 +2 +2 1028.3 771.1 +2.8 +16.1
СЗ 2 н/о н/о +1.7 -1.1 82 -2 -2 1028.2 771.1
штиль 0 н/о н/о +1.1 -1.7 82 0 0 1027.6 770.8
штиль 0 н/о н/о 0.0 -2.2 85 -1 -1 1027.3 770.6
штиль 0 н/о н/о -0.6 -2.2 89 -2 -2 1027.4 770.6
штиль 0 н/о н/о -1.1 -2.8 88 -2 -2 1027.5 770.6
СЗ 2 н/о н/о -1.7 -2.8 92 -6 -6 1027.4 770.6 -1.7 +2.8
штиль 0 н/о н/о 0.0 -1.7 88 -1 -1 1027.3 770.6
штиль 0 н/о н/о +5.6 +2.2 79 +5 +5 1025.8 770.8
нст 2 н/о н/о +8.3 +3.9 74 +7 +7 1026.1 770.8
нст 2 н/о н/о +9.4 +4.4 71 +8 +8 1026.7 770.6
штиль 0 н/о н/о +12.8 +4.4 57 +13 +13 1025.7 770.3
нст 2 н/о н/о +13.3 +3.9 53 +13 +13 1025.5 769.8 -1.7 +14.4
н/о н/о +15.0 +3.3 45 +15 +15 1024.6 769.3
нст 2 н/о н/о +16.7 +1.7 36 +17 +17 1023.7 768.8
н/о н/о +19.4 -3.3 21 +19 +19 1022.5 768.3
З 4
{11}
н/о н/о +19.4 -2.2 23 +19 +19 1022.4 768.0
нст 3
{11}
н/о н/о +20.6 -2.8 21 +21 +21 комфорт 1021.7 767.8
н/о н/о +18.9 -2.2 24 +19 +19 1022.1 767.5 +13.3 +20.6
нст 3 н/о н/о +17.8 -1.7 26 +18 +18 1021.8 767.5
нст 2 н/о н/о +16.7 +0.6 34 +17 +17 1020.6 767.3
нст 2 н/о н/о +16.1 -1.1 31 +16 +16 1019.9 767.3
СЗ 2 н/о н/о +10.0 +1.7 56 +9 +9 1021.9 768.0
З 2 н/о н/о +8.3 +0.6 58 +7 +7 1021.7 768.0
штиль 0 н/о н/о +6.1 +1.1 70 +5 +5 1021.6 767.8 +6.1 +19.4
штиль 0 н/о н/о +5.6 +0.6 70 +5 +5 1021.0 767.5
штиль 0 н/о н/о +3.9 0.0 76 +3 +3 1020.7 767.3
штиль 0 н/о н/о +2.8 0.0 82 +2 +2 1020.4 767.3
штиль 0 н/о н/о +1.7 -0.6 85 +1 +1 1020.5 767.3
штиль 0 н/о н/о +1.1 -1.1 85 0 0 1019.9 767.0
штиль 0 н/о н/о +0.6 -1.1 88 -1 -1 1020.7 767.0 +0.6 +6.7
штиль 0 н/о н/о +2.2 0.0 85 +1 +1 1020.4 766.8
штиль 0 н/о н/о +7.8 +3.9 76 +7 +7 1019.1 766.8
В 3 н/о н/о +9.4 +5.0 74 +7 +7 1019.0 766.8
нст 2 н/о н/о +12.2 +5.6 64 +11 +11 1019.7 766.8
нст 2 н/о н/о +15.0 +3.9 47 +15 +15 1018.7 766.3
н/о н/о +15.6 +2.8 42 +16 +16 1018.8 766.0 +0.6 +16.1
нст 2 н/о н/о +17.2 -2.8 25 +18 +18 1018.4 766.0
нст 3 н/о н/о +17.8 -1.1 28 +18 +18 1018.5 765.8
нст 3
{9}
н/о н/о +18.9 -1.7 25 +19 +19 1017.6 765.2
З 6
{14}
н/о н/о +18.9 -1.1 26 +18 +18 1017.9 765.2
нст 3 н/о н/о +16.7 +0.6 34 +17 +17 1018.7 765.2
З 5
{8}
н/о н/о +19.4 -1.1 25 +19 +19 1017.3 764.7 +15.6 +19.4
нст 2 н/о н/о +17.8 0.0 30 +18 +18 1017.5 764.7
нст 2 н/о н/о +16.7 0.0 32 +17 +17 1016.8 765.0
Местоположение метеостанции Yellowstone Lake: широта 44.5444 долгота -110.4211 высота над уровнем моря 2388 м.
В архиве по умолчанию представлена погода в Йеллоустон Лейк за последние 1-2 суток. Обновление информации о фактической погоде в базе происходит ежечасно! Архивные данные за месяц целиком и за предыдущие месяцы Вы можете получить, выбрав интересующий диапазон дат из раскрывающегося списка и нажав кнопку "Ввод!".
Внимание! Архив погоды МЕТАР в базе сайта по станциям, не включенным в климатический монитор, хранится не более 60 дней. Нет смысла пытаться выбрать более раннюю дату.
*Определитесь, кто Вы:
Внимание! Время в таблицах - местное (без учета летнего времени). Для получения всемирного времени необходимо вычесть поправку, которая равна -7 ч.
Смотрите также архив погоды в соседних городах и на ближайших метеорологических станциях:
Партнеры нашего сайта:      
Пояснения к столбцам:
  • Ветер - указаны скорость ветра в м/с - средняя за 10 мин, порывы в срок и между сроками (в фигурных скобках) и направление, откуда дует ветер: С - северный,
  • СВ - северо-восточный, В - восточный, ЮВ - юго-восточный, Ю - южный, ЮЗ - юго-западный, З - западный, СЗ - северо-западный.
  • Видимость - горизонтальная дальность видимости в метрах или километрах. При видимости от 1 до 10 км при отсутствии осадков обычно наблюдается дымка, при ухудшении видимости до 1 км и менее - туман. В сухую погоду видимость может ухудшаться дымом, пылью или мглою.
  • Явления - указаны атмосферные явления, наблюдавшиеся в срок или в последний час перед сроком; фигурными скобками обозначены явления, наблюдавшиеся между сроками (за 1-3 часа до срока); квадратными скобками обозначены град или гололедные отложения с указанием их диаметра в мм.
  • Облачность - указаны через наклонную черту общая и нижняя облачность в баллах и высота нижней границы облаков в метрах; квадратными скобками обозначены формы облаков: Ci - перистые, Cs - перисто-слоистые, Cc - перисто-кучевые, Ac - высококучевые, As - высокослоистые, Sc - слоисто-кучевые, Ns - слоисто-дождевые, Cu - кучевые, Cb - кучево-дождевые. Подробнее классификацию облаков см. в Атласе облаков (PDF).
  • T - Температура воздуха - температура, измеренная на высоте 2 м над землей.
  • Td - Температура точки росы - температура, при понижении до которой содержащийся в воздухе водяной пар достигнет насыщения.
  • f - Относительная влажность воздуха - влажноcть воздуха, измеренная на высоте 2 м над землей.
  • Te - Эффективная температура - температура, которую ощущает одетый по сезону человек в тени. Характеристика душности погоды. При расчете учитывается влияние влажности воздуха и скорости ветра на теплоощущения человека.
  • Tes - Эффективная температура на солнце - температура, которую ощущает человек, с поправкой на солнечный нагрев. Характеристика знойности погоды. Зависит от высоты солнца над горизонтом, облачности и скорости ветра. Ночью, в пасмурную погоду, а также при ветре 12 м/с и более поправка равна нулю.
  • P - Атмосферное давление - приведенное к уровню моря атмосферное давление.
  • Po - Атмосферное давление - измеренное на уровне метеостанции атмосферное давление.
  • Tmin - Минимальная температура - минимум температуры воздуха на высоте 2 м над землей.
  • Tmax - Максимальная температура - максимум температуры воздуха на высоте 2 м над землей.
  • R - Количество осадков - Количество выпавших осадков за период времени, мм. При наведении курсора мыши на число - период времени, за который выпало указанное количество осадков.
  • R24 - Количество осадков - Количество выпавших осадков за 24 часа, мм.
  • S - Снежный покров - Высота снежного покрова, см. При наведении курсора мыши на число - состояние снежного покрова и степень покрытия местности в баллах.